Time,TemperatureF,DewpointF,PressureIn,WindDirection,WindDirectionDegrees,WindSpeedMPH,WindSpeedGustMPH,Humidity,HourlyPrecipIn,Conditions,Clouds,dailyrainin,SoftwareType,DateUTC
2013-10-01 00:03:00,70.8,70.0,29.97,SE,138,0.0,0.0,96,0.00,,,0.04,weatherlink.com 1.10,2013-10-01 05:03:00,
2013-10-01 00:18:00,70.6,70.0,29.96,SE,138,0.0,0.0,96,0.00,,,0.04,weatherlink.com 1.10,2013-10-01 05:18:00,
2013-10-01 00:33:00,70.5,70.0,29.96,SE,145,0.0,1.0,97,0.00,,,0.04,weatherlink.com 1.10,2013-10-01 05:33:00,
2013-10-01 00:48:00,70.4,70.0,29.96,SE,145,0.0,1.0,97,0.00,,,0.04,weatherlink.com 1.10,2013-10-01 05:48:00,
2013-10-01 01:03:00,70.2,69.0,29.96,SE,145,0.0,1.0,97,0.00,,,0.00,weatherlink.com 1.10,2013-10-01 06:03:00,
2013-10-01 01:18:00,70.1,69.0,29.97,SE,145,0.0,1.0,97,0.00,,,0.00,weatherlink.com 1.10,2013-10-01 06:18:00,
2013-10-01 01:33:00,69.9,69.0,29.97,SE,145,0.0,1.0,97,0.00,,,0.00,weatherlink.com 1.10,2013-10-01 06:33:00,
2013-10-01 01:48:00,69.9,69.0,29.97,SE,146,0.0,0.0,97,0.00,,,0.00,weatherlink.com 1.10,2013-10-01 06:48:00,
2013-10-01 02:03:00,69.8,69.0,29.97,SE,145,0.0,0.0,97,0.00,,,0.00,weatherlink.com 1.10,2013-10-01 07:03:00,
2013-10-01 02:18:00,69.5,69.0,29.97,SE,145,0.0,0.0,97,0.00,,,0.00,weatherlink.com 1.10,2013-10-01 07:18:00,
2013-10-01 02:33:00,69.4,69.0,29.97,SE,145,0.0,0.0,97,0.00,,,0.00,weatherlink.com 1.10,2013-10-01 07:33:00,
2013-10-01 02:48:00,69.4,69.0,29.96,SE,142,0.0,0.0,97,0.00,,,0.00,weatherlink.com 1.10,2013-10-01 07:48:00,
2013-10-01 03:03:00,69.3,69.0,29.97,SE,141,0.0,1.0,97,0.00,,,0.00,weatherlink.com 1.10,2013-10-01 08:03:00,
2013-10-01 03:19:00,69.2,68.0,29.97,SE,141,0.0,1.0,97,0.00,,,0.00,weatherlink.com 1.10,2013-10-01 08:19:00,
2013-10-01 03:33:00,69.0,68.0,29.97,SE,141,0.0,1.0,97,0.00,,,0.00,weatherlink.com 1.10,2013-10-01 08:33:00,
2013-10-01 03:48:00,68.9,68.0,29.97,SE,136,0.0,0.0,97,0.00,,,0.00,weatherlink.com 1.10,2013-10-01 08:48:00,
2013-10-01 04:04:00,68.8,68.0,29.97,SE,138,0.0,1.0,98,0.00,,,0.00,weatherlink.com 1.10,2013-10-01 09:04:00,
2013-10-01 04:19:00,68.7,68.0,29.97,SE,138,0.0,1.0,98,0.00,,,0.00,weatherlink.com 1.10,2013-10-01 09:19:00,
2013-10-01 04:34:00,68.5,68.0,29.97,SE,138,0.0,1.0,98,0.00,,,0.00,weatherlink.com 1.10,2013-10-01 09:34:00,
2013-10-01 04:49:00,68.4,68.0,29.97,ESE,111,0.0,1.0,98,0.00,,,0.00,weatherlink.com 1.10,2013-10-01 09:49:00,
2013-10-01 05:04:00,68.3,68.0,29.97,ESE,113,0.0,1.0,98,0.00,,,0.00,weatherlink.com 1.10,2013-10-01 10:04:00,
2013-10-01 05:19:00,68.1,68.0,29.98,SE,132,0.0,1.0,98,0.00,,,0.00,weatherlink.com 1.10,2013-10-01 10:19:00,
2013-10-01 05:34:00,68.1,68.0,29.98,SE,133,0.0,0.0,98,0.00,,,0.00,weatherlink.com 1.10,2013-10-01 10:34:00,
2013-10-01 05:49:00,67.9,67.0,29.99,SE,132,0.0,0.0,98,0.00,,,0.00,weatherlink.com 1.10,2013-10-01 10:49:00,
2013-10-01 06:04:00,67.8,67.0,30.00,SE,133,0.0,0.0,97,0.00,,,0.00,weatherlink.com 1.10,2013-10-01 11:04:00,
2013-10-01 06:19:00,67.6,67.0,30.01,SE,133,0.0,0.0,98,0.00,,,0.00,weatherlink.com 1.10,2013-10-01 11:19:00,
2013-10-01 06:34:00,67.7,67.0,30.01,SE,132,0.0,0.0,98,0.00,,,0.00,weatherlink.com 1.10,2013-10-01 11:34:00,
2013-10-01 06:49:00,67.8,67.0,30.01,SE,133,0.0,0.0,98,0.00,,,0.00,weatherlink.com 1.10,2013-10-01 11:49:00,
2013-10-01 07:04:00,67.9,67.0,30.01,SE,133,0.0,0.0,98,0.00,,,0.00,weatherlink.com 1.10,2013-10-01 12:04:00,
2013-10-01 07:19:00,68.0,68.0,30.02,SE,133,0.0,0.0,98,0.00,,,0.00,weatherlink.com 1.10,2013-10-01 12:19:00,
2013-10-01 07:34:00,68.1,68.0,30.02,SE,132,0.0,1.0,98,0.00,,,0.00,weatherlink.com 1.10,2013-10-01 12:34:00,
2013-10-01 07:49:00,68.4,68.0,30.03,SE,125,0.0,1.0,98,0.00,,,0.00,weatherlink.com 1.10,2013-10-01 12:49:00,
2013-10-01 08:04:00,69.0,69.0,30.03,ENE,62,0.0,1.0,98,0.00,,,0.00,weatherlink.com 1.10,2013-10-01 13:04:00,
2013-10-01 08:19:00,70.2,69.0,30.04,NE,50,0.0,3.0,97,0.00,,,0.00,weatherlink.com 1.10,2013-10-01 13:19:00,
2013-10-01 08:34:00,71.8,70.0,30.04,East,88,1.0,2.0,94,0.00,,,0.00,weatherlink.com 1.10,2013-10-01 13:34:00,
2013-10-01 08:49:00,72.0,70.0,30.04,SE,128,1.0,2.0,93,0.00,,,0.00,weatherlink.com 1.10,2013-10-01 13:49:00,
2013-10-01 09:04:00,72.6,70.0,30.04,East,79,0.0,1.0,92,0.00,,,0.00,weatherlink.com 1.10,2013-10-01 14:04:00,
2013-10-01 09:19:00,73.7,71.0,30.05,SSE,148,0.0,2.0,90,0.00,,,0.00,weatherlink.com 1.10,2013-10-01 14:19:00,
2013-10-01 09:34:00,74.6,72.0,30.05,East,94,0.0,3.0,90,0.00,,,0.00,weatherlink.com 1.10,2013-10-01 14:34:00,
2013-10-01 09:49:00,75.9,72.0,30.04,ENE,71,0.0,2.0,88,0.00,,,0.00,weatherlink.com 1.10,2013-10-01 14:49:00,
2013-10-01 10:04:00,77.2,73.0,30.05,ESE,112,1.0,3.0,86,0.00,,,0.00,weatherlink.com 1.10,2013-10-01 15:04:00,
2013-10-01 10:20:00,78.3,72.0,30.05,SSE,167,1.0,4.0,82,0.00,,,0.00,weatherlink.com 1.10,2013-10-01 15:20:00,
2013-10-01 10:35:00,79.3,73.0,30.05,ESE,120,1.0,5.0,81,0.00,,,0.00,weatherlink.com 1.10,2013-10-01 15:35:00,
2013-10-01 10:50:00,80.6,73.0,30.05,ESE,113,1.0,3.0,78,0.00,,,0.00,weatherlink.com 1.10,2013-10-01 15:50:00,
2013-10-01 11:05:00,80.4,73.0,30.05,ESE,118,1.0,3.0,78,0.00,,,0.00,weatherlink.com 1.10,2013-10-01 16:05:00,
2013-10-01 11:20:00,80.1,73.0,30.04,SSE,165,1.0,3.0,79,0.00,,,0.00,weatherlink.com 1.10,2013-10-01 16:20:00,
2013-10-01 11:35:00,81.4,74.0,30.04,SSE,150,2.0,2.0,77,0.00,,,0.00,weatherlink.com 1.10,2013-10-01 16:35:00,
2013-10-01 11:50:00,81.4,73.0,30.04,ESE,105,1.0,3.0,76,0.00,,,0.00,weatherlink.com 1.10,2013-10-01 16:50:00,
2013-10-01 12:20:00,82.3,72.0,30.03,SSE,150,2.0,2.0,71,0.00,,,0.00,weatherlink.com 1.10,2013-10-01 17:20:00,
2013-10-01 12:35:00,83.1,72.0,30.03,SE,131,1.0,4.0,69,0.00,,,0.00,weatherlink.com 1.10,2013-10-01 17:35:00,
2013-10-01 12:50:00,82.7,73.0,30.02,East,93,0.0,3.0,72,0.00,,,0.00,weatherlink.com 1.10,2013-10-01 17:50:00,
2013-10-01 13:05:00,83.2,72.0,30.02,SE,139,1.0,4.0,69,0.00,,,0.00,weatherlink.com 1.10,2013-10-01 18:05:00,
2013-10-01 13:20:00,83.2,72.0,30.01,SE,126,1.0,2.0,70,0.00,,,0.00,weatherlink.com 1.10,2013-10-01 18:20:00,
2013-10-01 13:35:00,83.1,72.0,30.01,SE,135,1.0,4.0,70,0.00,,,0.00,weatherlink.com 1.10,2013-10-01 18:35:00,
2013-10-01 13:50:00,84.4,74.0,30.00,SSE,148,1.0,3.0,70,0.00,,,0.00,weatherlink.com 1.10,2013-10-01 18:50:00,
2013-10-01 14:05:00,84.4,73.0,30.00,SSE,150,2.0,4.0,68,0.00,,,0.00,weatherlink.com 1.10,2013-10-01 19:05:00,
2013-10-01 14:20:00,84.0,72.0,29.99,SE,141,0.0,3.0,67,0.00,,,0.00,weatherlink.com 1.10,2013-10-01 19:20:00,
2013-10-01 14:35:00,83.9,72.0,29.99,SE,139,0.0,5.0,68,0.00,,,0.00,weatherlink.com 1.10,2013-10-01 19:35:00,
2013-10-01 14:50:00,83.3,72.0,29.99,ESE,109,1.0,3.0,69,0.00,,,0.00,weatherlink.com 1.10,2013-10-01 19:50:00,
2013-10-01 15:05:00,82.5,72.0,29.99,SSE,160,0.0,2.0,70,0.00,,,0.00,weatherlink.com 1.10,2013-10-01 20:05:00,
2013-10-01 15:21:00,82.1,72.0,29.99,SE,139,2.0,3.0,72,0.00,,,0.00,weatherlink.com 1.10,2013-10-01 20:21:00,
2013-10-01 15:35:00,81.7,71.0,29.99,SSE,152,1.0,3.0,71,0.00,,,0.00,weatherlink.com 1.10,2013-10-01 20:35:00,
2013-10-01 15:50:00,81.4,71.0,29.99,ESE,119,0.0,3.0,71,0.00,,,0.00,weatherlink.com 1.10,2013-10-01 20:50:00,
2013-10-01 16:05:00,81.2,72.0,29.99,SE,138,1.0,3.0,73,0.00,,,0.00,weatherlink.com 1.10,2013-10-01 21:05:00,
2013-10-01 16:20:00,80.8,71.0,29.99,SE,139,1.0,2.0,73,0.00,,,0.00,weatherlink.com 1.10,2013-10-01 21:20:00,
2013-10-01 16:35:00,80.4,72.0,29.99,SE,134,0.0,1.0,75,0.00,,,0.00,weatherlink.com 1.10,2013-10-01 21:35:00,
2013-10-01 16:50:00,80.1,72.0,29.99,SE,134,0.0,1.0,76,0.00,,,0.00,weatherlink.com 1.10,2013-10-01 21:50:00,
2013-10-01 17:05:00,79.8,72.0,30.00,SE,134,0.0,1.0,77,0.00,,,0.00,weatherlink.com 1.10,2013-10-01 22:05:00,
2013-10-01 17:20:00,79.5,73.0,30.00,SE,134,0.0,1.0,79,0.00,,,0.00,weatherlink.com 1.10,2013-10-01 22:20:00,
2013-10-01 17:35:00,79.0,72.0,30.00,SE,138,0.0,2.0,80,0.00,,,0.00,weatherlink.com 1.10,2013-10-01 22:35:00,
2013-10-01 17:50:00,78.6,72.0,30.00,SE,145,0.0,2.0,81,0.00,,,0.00,weatherlink.com 1.10,2013-10-01 22:50:00,
2013-10-01 18:05:00,78.3,72.0,30.00,SE,141,1.0,2.0,80,0.00,,,0.00,weatherlink.com 1.10,2013-10-01 23:05:00,
2013-10-01 18:20:00,77.9,72.0,30.00,SE,135,1.0,1.0,81,0.00,,,0.00,weatherlink.com 1.10,2013-10-01 23:20:00,
2013-10-01 18:35:00,77.5,72.0,30.00,SE,136,0.0,1.0,82,0.00,,,0.00,weatherlink.com 1.10,2013-10-01 23:35:00,
2013-10-01 18:50:00,76.8,72.0,30.00,SE,135,0.0,1.0,85,0.00,,,0.00,weatherlink.com 1.10,2013-10-01 23:50:00,
2013-10-01 19:05:00,76.3,72.0,30.00,SE,135,0.0,0.0,86,0.00,,,0.00,weatherlink.com 1.10,2013-10-02 00:05:00,
2013-10-01 19:20:00,75.7,72.0,30.00,SE,135,0.0,0.0,87,0.00,,,0.00,weatherlink.com 1.10,2013-10-02 00:20:00,
2013-10-01 19:35:00,75.4,72.0,30.01,SE,136,0.0,1.0,88,0.00,,,0.00,weatherlink.com 1.10,2013-10-02 00:35:00,
2013-10-01 19:50:00,75.1,71.0,30.00,SE,134,0.0,1.0,88,0.00,,,0.00,weatherlink.com 1.10,2013-10-02 00:50:00,
2013-10-01 20:05:00,74.5,71.0,30.01,ESE,106,0.0,1.0,89,0.00,,,0.00,weatherlink.com 1.10,2013-10-02 01:05:00,
2013-10-01 20:20:00,74.0,71.0,30.02,ESE,108,0.0,1.0,89,0.00,,,0.00,weatherlink.com 1.10,2013-10-02 01:20:00,
2013-10-01 20:35:00,73.5,70.0,30.02,ENE,71,0.0,2.0,88,0.00,,,0.00,weatherlink.com 1.10,2013-10-02 01:35:00,
2013-10-01 20:50:00,73.1,69.0,30.02,East,100,0.0,2.0,88,0.00,,,0.00,weatherlink.com 1.10,2013-10-02 01:50:00,
2013-10-01 21:05:00,72.8,69.0,30.02,ENE,58,0.0,1.0,88,0.00,,,0.00,weatherlink.com 1.10,2013-10-02 02:05:00,
2013-10-01 21:20:00,72.5,69.0,30.02,ENE,60,0.0,1.0,89,0.00,,,0.00,weatherlink.com 1.10,2013-10-02 02:20:00,
2013-10-01 21:35:00,72.1,69.0,30.02,ENE,58,0.0,1.0,89,0.00,,,0.00,weatherlink.com 1.10,2013-10-02 02:35:00,
2013-10-01 21:50:00,72.0,69.0,30.03,ENE,58,0.0,0.0,89,0.00,,,0.00,weatherlink.com 1.10,2013-10-02 02:50:00,
2013-10-01 22:05:00,71.8,69.0,30.03,ENE,58,0.0,0.0,90,0.00,,,0.00,weatherlink.com 1.10,2013-10-02 03:05:00,
2013-10-01 22:20:00,71.7,69.0,30.03,ENE,58,0.0,0.0,90,0.00,,,0.00,weatherlink.com 1.10,2013-10-02 03:20:00,
2013-10-01 22:35:00,71.6,69.0,30.03,ENE,58,0.0,0.0,90,0.00,,,0.00,weatherlink.com 1.10,2013-10-02 03:35:00,
2013-10-01 22:50:00,71.4,68.0,30.04,ENE,58,0.0,0.0,90,0.00,,,0.00,weatherlink.com 1.10,2013-10-02 03:50:00,
2013-10-01 23:05:00,71.6,69.0,30.04,ENE,58,0.0,0.0,90,0.00,,,0.00,weatherlink.com 1.10,2013-10-02 04:05:00,
2013-10-01 23:20:00,71.4,69.0,30.04,ENE,58,0.0,0.0,91,0.00,,,0.00,weatherlink.com 1.10,2013-10-02 04:20:00,
2013-10-01 23:35:00,71.4,69.0,30.04,ENE,58,0.0,0.0,91,0.00,,,0.00,weatherlink.com 1.10,2013-10-02 04:35:00,
2013-10-01 23:50:00,71.3,69.0,30.04,ENE,58,0.0,0.0,91,0.00,,,0.00,weatherlink.com 1.10,2013-10-02 04:50:00,